Wind_Speed
5 5 4 5 2 3 2 5 2 2 4 4 5 6 7 5 3 0 17 13 28 28 25 23 22 21 20 19 18 17 15 15 14 14 13 13 14 15 15 15 16 16 16 15 14 14 14 12 12
4 1 2 3 3 1 3 2 6 6 11 7 7 6 5 5 5 8 11 25 30 30 26 24 22 21 20 19 18 16 15 13 13 13 13 14 14 14 14 15 15 16 15 15 14 14 13 12 12
1 3 2 4 3 4 3 4 6 11 9 7 4 3 2 6 11 11 15 31 29 28 26 24 21 20 20 19 17 16 14 13 12 13 13 13 13 13 13 13 14 14 14 15 14 13 13 12 13
4 2 3 3 5 7 4 6 10 9 6 6 16 4 3 2 6 14 31 30 28 25 24 23 21 20 18 18 17 15 14 12 12 12 12 12 12 13 13 12 13 14 14 14 15 14 13 13 14
2 2 3 2 2 5 5 3 7 6 5 6 2 6 4 4 15 32 31 29 29 26 23 22 20 19 18 16 15 13 12 12 12 12 12 12 12 13 13 12 13 13 14 14 14 14 14 14 16
3 2 3 2 1 3 5 6 4 3 2 9 10 6 2 15 28 26 29 27 24 26 22 20 18 17 16 15 14 13 13 13 12 12 12 14 14 13 12 14 14 14 15 17 16 17 17 17 19
4 3 4 2 3 5 3 6 2 10 7 4 9 5 4 4 22 28 28 25 25 24 23 21 19 17 15 14 14 14 13 11 12 12 13 13 12 12 12 12 12 12 12 14 14 16 16 17 18
4 3 0 2 8 4 9 3 3 9 2 6 8 7 8 9 25 27 28 27 26 24 22 20 18 16 16 16 15 14 14 13 12 12 10 9 10 8 7 8 8 7 8 8 9 10 11 13 15
2 3 1 3 8 7 13 5 3 2 9 1 2 5 19 31 32 30 28 27 24 22 21 20 19 18 17 17 15 14 14 13 12 11 8 5 5 4 3 5 4 5 5 5 5 7 8 10 13
3 4 6 3 7 6 9 3 9 5 2 5 8 14 26 29 32 24 20 23 25 24 24 22 20 19 19 18 17 16 14 13 9 7 6 4 3 1 1 3 3 4 6 6 7 7 8 11 13
4 5 5 6 7 15 12 5 3 11 3 7 16 16 18 23 21 23 22 32 33 29 27 25 21 20 21 20 18 16 13 11 8 6 4 3 2 2 1 3 4 5 7 9 8 8 10 15 16
2 7 2 4 7 6 9 6 6 3 8 10 22 24 21 14 18 23 25 29 29 30 29 26 24 22 19 19 18 16 16 14 11 8 6 4 3 1 2 3 5 6 8 10 10 11 14 17 18
3 3 1 5 8 6 6 5 6 2 7 12 18 19 19 17 21 26 35 33 32 33 32 29 27 24 20 20 19 17 15 15 12 11 7 5 4 3 1 1 2 4 6 7 10 13 15 18 20
7 1 5 3 7 5 5 2 1 4 8 12 18 18 17 17 23 20 24 28 30 33 33 29 26 22 19 20 19 16 14 14 14 12 9 7 7 5 4 2 1 2 5 7 10 11 14 13 13
7 4 4 2 1 2 4 2 3 6 11 16 17 17 14 14 18 24 26 25 30 31 32 25 23 19 19 18 18 17 15 12 10 12 10 5 4 5 3 2 2 6 9 12 14 13 12 13 13
4 5 3 4 3 3 4 7 1 10 14 13 13 9 2 4 4 2 13 24 28 29 26 23 16 9 9 7 6 10 9 8 9 9 5 3 4 5 2 3 9 13 13 15 15 13 13 15 17
6 3 2 3 4 3 3 5 5 6 13 11 6 7 6 6 12 6 6 17 21 19 20 22 10 8 6 8 7 1 7 8 9 12 13 10 6 2 6 11 14 15 11 12 14 15 17 19 20
3 2 2 5 3 4 2 5 8 5 8 8 8 8 8 9 8 12 18 17 19 21 22 14 9 5 3 2 6 12 18 19 15 13 9 3 2 6 10 11 12 10 11 14 18 20 22 23 23
2 3 3 2 2 7 5 9 10 8 11 11 9 10 11 12 12 19 21 21 22 21 15 9 9 8 4 18 15 14 15 10 10 6 5 9 7 7 8 9 9 12 15 17 19 21 23 24 22
6 6 2 3 8 10 10 12 9 11 7 10 11 11 11 11 12 18 26 26 23 19 15 16 16 14 14 12 7 6 7 6 6 5 6 4 6 6 7 9 11 12 16 19 19 18 19 18 20
4 2 2 5 6 5 10 9 8 7 10 11 8 9 9 11 12 9 17 24 21 19 19 19 18 16 13 10 6 3 2 1 3 2 1 3 3 5 7 10 10 11 12 12 14 15 15 15 17
3 2 3 4 6 4 3 2 4 3 6 6 6 6 7 9 9 9 13 20 21 18 16 13 11 7 7 5 5 4 4 4 3 1 5 4 3 6 10 12 16 18 15 14 13 13 14 13 13
3 1 2 2 4 4 4 5 3 5 2 4 4 6 7 8 8 8 13 20 17 14 11 9 6 3 2 2 2 3 4 3 4 5 6 5 7 9 13 23 23 9 11 14 15 14 13 12 13
1 4 6 4 3 3 4 5 5 6 5 4 3 4 8 10 5 10 16 14 10 9 9 10 10 9 3 1 1 4 8 7 4 4 5 9 17 21 22 13 5 10 13 14 12 13 12 12 12
5 5 2 3 3 4 5 3 5 4 14 8 11 7 6 6 7 7 11 12 14 14 13 13 11 13 11 9 10 9 8 9 11 11 12 17 19 19 15 6 5 10 9 9 9 9 9 11 13
3 4 4 5 3 3 4 1 4 4 9 9 8 10 7 5 5 7 16 20 21 20 15 13 11 10 8 8 10 11 12 9 11 13 16 18 21 18 13 8 7 6 7 7 8 9 10 10 12
1 4 3 6 3 3 2 2 5 3 6 8 10 7 7 7 7 8 17 20 17 14 10 8 8 6 7 9 11 11 13 14 16 17 19 19 17 12 8 9 10 10 7 9 8 10 12 13 14
5 4 3 4 3 2 2 3 4 8 7 3 7 10 7 7 8 7 14 13 10 8 8 7 8 6 7 8 12 14 16 17 19 21 25 22 15 10 6 8 11 14 13 9 9 11 11 14 15
4 2 6 5 3 4 2 5 5 8 8 8 7 8 9 8 7 7 12 10 6 5 5 6 5 5 5 7 10 12 15 18 22 22 22 13 11 8 10 8 12 19 13 9 11 13 15 14 11
1 3 4 4 3 1 3 5 2 7 9 12 13 14 10 8 7 8 10 8 5 3 5 7 7 7 7 9 12 13 13 16 20 19 14 14 17 23 18 15 16 18 15 11 14 14 13 13 11
Wind_Direction
298 284 86 67 46 45 275 271 47 265 62 6 52 93 107 60 33 151 151 155 156 150 148 147 143 139 137 137 135 131 126 122 115 106 99 93 89 81 75 72 71 70 68 65 60 57 55 53 48
313 230 45 88 75 75 252 184 141 121 130 93 61 52 37 84 71 120 125 151 152 148 148 144 142 141 141 140 139 135 128 125 117 110 102 93 84 79 74 71 69 67 63 58 54 50 51 40 41
190 218 90 113 147 195 222 182 158 129 149 106 55 57 48 118 114 147 156 154 152 146 145 142 143 141 141 142 140 134 130 125 117 110 102 97 92 82 77 75 72 66 60 52 45 37 35 33 30
192 0 34 106 214 248 230 177 141 125 67 22 126 16 49 67 152 165 154 155 149 146 144 140 142 143 144 142 138 137 136 126 119 111 104 95 87 85 82 77 72 64 53 40 35 28 23 28 30
87 34 91 210 263 267 107 190 127 120 107 164 148 134 69 21 147 145 156 156 148 143 141 142 144 144 143 143 146 144 134 130 123 115 106 95 89 86 83 72 65 58 50 47 39 31 27 34 38
18 134 51 284 230 353 75 81 117 97 157 105 91 86 40 151 141 150 155 150 147 143 144 144 147 150 152 154 150 147 142 137 126 120 110 102 100 99 83 73 70 55 54 47 45 42 44 41 32
149 96 200 277 157 43 350 71 121 126 143 130 140 98 126 161 143 153 154 150 149 149 149 151 155 156 157 154 155 153 143 139 134 128 114 110 101 96 87 78 73 60 58 52 44 41 37 32 27
120 87 122 244 111 88 340 30 177 151 159 113 144 157 170 177 155 154 152 148 149 153 153 152 155 158 160 160 159 152 146 144 137 133 124 120 111 101 88 74 64 55 49 48 39 30 25 22 19
96 64 223 211 150 170 176 205 184 11 131 305 351 114 146 151 151 149 149 148 153 157 156 153 156 159 162 160 154 151 148 144 144 143 139 130 129 102 88 69 60 40 33 9 6 1 3 4 9
105 122 232 220 141 171 184 183 144 118 136 28 74 80 135 148 149 147 154 154 161 167 168 166 163 159 159 156 153 149 149 148 144 149 153 162 147 148 81 59 26 1 353 350 346 341 344 354 356
185 218 185 191 178 169 183 196 102 123 344 178 143 142 152 154 159 152 163 167 173 175 177 178 171 167 161 158 154 155 152 158 157 153 168 173 224 168 142 70 46 14 357 357 354 355 349 349 346
208 262 227 191 169 129 158 151 122 155 187 169 152 159 160 168 172 165 172 181 181 182 184 181 179 177 174 169 164 162 163 169 172 173 175 185 162 93 95 68 47 23 15 12 10 1 352 350 347
209 252 336 103 107 120 109 146 186 220 139 151 144 158 170 175 180 176 179 186 187 189 189 189 184 187 183 183 179 182 184 190 185 186 193 195 223 218 196 60 52 28 10 352 351 345 337 333 330
173 242 124 43 120 137 119 114 74 51 121 144 159 176 181 184 186 175 189 192 192 194 194 191 188 193 195 196 191 193 197 202 196 196 200 209 198 192 182 195 100 351 345 336 335 338 334 332 328
116 79 39 39 64 130 124 64 192 134 151 159 180 186 188 201 188 191 190 196 195 199 194 186 188 185 195 195 184 188 189 190 194 195 205 210 190 192 200 147 20 350 337 326 322 324 325 321 331
86 52 104 281 125 31 98 253 209 146 149 185 192 195 80 32 24 152 201 203 197 198 184 178 177 172 168 173 171 170 173 186 201 198 201 199 151 129 126 326 322 333 334 331 333 344 339 341 343
13 153 157 321 199 51 105 253 335 162 176 183 73 72 78 61 38 61 141 199 196 179 165 158 151 151 73 67 49 269 153 116 117 120 115 114 106 41 324 331 339 340 339 345 355 356 350 345 340
225 153 186 214 186 67 273 357 5 30 95 112 90 84 77 71 40 80 115 142 153 152 148 146 135 121 143 59 154 106 101 101 105 102 95 61 352 316 326 340 349 351 350 348 348 347 341 340 340
87 106 151 262 39 75 48 40 17 32 78 95 87 83 80 71 67 72 97 110 117 124 117 125 166 130 91 128 108 100 96 98 93 74 18 333 357 12 2 11 14 9 3 356 349 344 341 341 343
71 115 81 128 42 86 71 37 36 38 57 87 96 88 86 89 79 81 94 98 96 101 101 114 128 133 120 105 104 108 122 122 107 25 1 13 355 5 18 10 6 359 355 350 351 352 348 342 347
35 72 59 109 58 38 85 37 17 24 64 80 69 84 86 103 96 81 95 111 114 109 111 110 112 110 102 100 117 120 129 161 222 279 145 69 39 17 5 6 11 10 13 22 11 2 359 347 344
45 334 50 66 91 173 73 121 9 28 61 79 95 101 109 118 122 114 120 120 122 121 119 111 106 96 77 54 359 328 280 280 298 141 97 94 54 41 37 29 7 352 351 345 354 348 356 352 350
185 109 109 84 95 89 36 90 236 134 102 139 155 153 145 135 147 138 142 133 135 133 126 113 99 85 55 348 336 332 334 2 105 84 42 43 37 13 340 333 323 319 345 343 342 348 352 350 337
110 89 42 52 85 58 306 131 214 180 194 176 171 164 182 138 161 143 144 126 110 104 100 103 94 83 101 169 357 29 66 68 51 18 336 316 310 303 307 311 318 344 341 339 347 348 345 341 336
71 76 14 11 13 199 312 68 221 200 156 171 175 182 192 162 162 135 113 100 91 94 107 104 100 97 94 84 69 48 13 336 312 301 299 300 298 293 285 263 306 329 337 339 336 335 339 333 323
51 134 148 183 182 225 1 72 278 161 144 173 173 174 171 137 108 120 107 102 99 102 100 97 89 86 60 34 15 3 353 329 305 298 301 290 287 275 245 254 293 321 330 320 311 319 316 314 313
155 51 148 106 4 70 262 36 7 52 154 165 166 114 107 108 105 91 95 101 102 97 88 71 64 54 34 16 357 342 330 321 314 310 307 294 271 244 284 308 318 308 305 293 291 297 304 306 298
110 141 53 9 124 182 270 216 217 196 199 184 109 124 122 100 89 89 103 110 106 78 65 65 58 25 1 351 339 323 315 308 306 310 311 295 258 246 252 298 297 297 283 279 290 294 303 302 299
359 45 61 106 107 153 176 257 217 191 174 152 129 132 131 127 132 138 138 116 95 89 83 81 59 47 24 354 348 347 344 339 329 308 296 283 272 259 255 253 288 291 270 269 286 299 306 296 284
162 125 108 108 226 42 143 277 31 146 154 147 157 157 152 141 137 137 128 138 131 122 125 94 79 73 54 28 9 0 350 348 345 341 308 292 282 270 249 245 286 284 267 282 293 293 280 285 286
Height
790 789 785 788 816 815 822 810 788 793 797 789 787 790 803 805 809 821 807 808 812 817 820 823 824 826 829 831 833 834 835 836 836 837 838 838 838 838 839 839 838 838 838 838 838 838 837 837 835
790 789 787 795 825 829 820 796 800 790 789 786 789 792 797 807 803 810 811 811 815 815 820 823 825 827 830 833 834 835 836 837 837 837 838 839 840 840 841 841 842 840 840 841 840 839 837 841 837
790 790 795 804 826 834 817 794 793 790 786 786 798 797 802 806 804 811 811 814 818 818 820 823 827 829 832 834 836 836 837 838 838 839 839 839 839 841 841 843 843 843 842 841 840 841 840 839 838
791 790 796 812 815 808 797 789 783 790 789 786 792 807 800 803 805 808 813 816 818 822 824 825 828 831 834 836 836 837 838 838 839 840 841 842 842 842 842 843 842 843 843 845 843 843 843 840 839
789 795 813 815 808 796 789 785 784 789 794 796 788 804 809 811 809 812 816 819 819 823 825 827 830 833 835 836 837 839 839 840 841 841 841 842 844 845 847 846 845 846 843 845 842 843 844 842 841
797 800 819 819 808 791 788 787 790 794 795 794 797 803 815 813 811 815 817 821 823 823 826 828 832 834 835 837 838 839 839 839 840 842 842 842 844 845 848 848 847 848 847 847 847 844 845 844 843
798 806 815 808 805 799 791 782 792 792 796 797 794 812 815 815 816 816 819 823 825 825 827 829 832 833 835 836 838 839 838 840 841 841 842 843 847 848 847 849 847 848 848 848 851 848 847 845 845
791 800 805 805 807 810 787 788 788 788 795 791 793 811 818 813 815 818 821 823 826 827 828 829 831 833 835 836 838 838 838 840 842 844 845 846 845 848 849 850 850 850 849 849 850 850 848 847 845
785 810 817 805 806 803 791 794 790 788 793 795 795 795 802 810 816 821 824 824 827 828 828 829 831 832 833 836 838 839 840 841 842 842 845 848 846 848 850 849 850 849 849 851 849 850 848 847 847
796 817 805 785 790 794 785 790 789 795 799 802 799 801 809 813 814 818 822 823 825 826 828 830 831 832 835 837 838 839 841 842 844 844 843 846 846 847 847 847 850 850 851 850 848 848 849 847 846
791 798 783 781 778 777 784 794 787 798 804 797 802 808 812 814 815 816 820 818 819 823 827 830 832 835 834 835 836 839 842 844 845 844 844 845 846 847 847 847 848 850 851 851 848 848 848 847 845
790 779 776 775 774 780 791 786 792 789 790 789 792 799 807 811 812 813 816 817 820 822 825 829 831 833 837 836 838 839 838 841 841 843 844 844 845 847 847 847 847 849 850 850 849 847 846 846 844
785 778 775 774 775 778 780 787 786 788 788 791 796 802 804 806 808 810 812 814 818 819 823 826 829 832 833 835 836 837 840 841 842 842 844 843 844 846 848 848 846 847 847 848 847 846 845 844 843
778 780 780 776 777 779 785 786 783 793 791 796 798 800 801 802 804 812 813 812 815 819 822 826 831 833 832 834 836 837 839 842 842 842 844 845 845 847 848 847 846 846 845 846 845 843 843 842 841
778 789 784 783 781 783 782 793 794 792 794 796 797 798 801 804 807 807 811 813 816 820 826 831 832 832 833 835 836 839 840 840 843 843 844 845 845 847 848 847 847 845 844 845 844 842 840 840 838
787 797 809 789 784 789 789 811 790 795 796 800 799 802 808 812 813 813 814 815 818 822 829 833 838 839 839 841 844 843 843 842 843 843 843 845 847 848 848 848 846 844 843 842 841 838 838 837 835
805 814 804 796 787 790 792 803 796 798 796 800 810 812 813 815 814 814 814 817 821 826 831 835 837 838 840 843 846 848 845 842 844 844 845 847 848 849 848 846 844 842 841 840 839 837 836 835 833
808 805 808 806 794 793 797 807 811 804 806 812 818 818 818 818 820 816 813 818 820 824 829 836 839 842 841 844 847 849 846 846 848 847 848 850 847 847 846 845 843 843 840 838 837 836 835 834 832
789 804 807 802 792 808 823 825 824 817 816 820 822 823 822 823 824 820 819 821 825 827 833 837 841 843 844 845 847 849 849 851 850 849 850 851 848 847 844 843 843 842 840 839 837 835 834 832 830
797 806 807 800 799 809 823 833 828 823 825 825 826 827 828 828 827 826 824 826 829 833 836 838 842 844 846 847 849 851 851 851 850 849 849 849 846 845 844 842 841 839 839 840 838 836 833 832 830
807 809 804 805 809 814 815 837 837 831 831 830 832 832 832 831 832 834 831 832 834 837 839 841 844 846 847 847 848 849 850 850 850 848 847 846 846 845 843 843 841 840 838 836 838 836 833 831 830
810 798 799 803 821 838 819 865 842 841 844 840 839 839 838 837 834 836 838 837 840 842 844 845 846 848 848 848 849 849 848 848 847 847 847 845 845 845 846 842 843 845 840 836 832 834 832 830 829
807 798 804 808 825 829 830 854 848 843 847 846 845 842 841 839 839 839 841 840 842 843 846 847 848 849 849 850 849 849 849 848 848 849 850 849 847 846 841 840 839 838 837 836 834 831 830 830 829
795 808 819 827 834 857 835 846 853 849 842 845 842 843 841 835 843 841 843 844 846 845 848 849 849 849 848 848 848 849 849 851 851 850 848 845 844 840 840 837 837 835 833 832 831 830 829 827 827
806 822 856 857 863 862 835 842 843 832 833 839 840 841 841 840 843 843 843 846 846 847 850 850 850 850 851 851 851 852 852 851 849 847 845 843 841 838 837 836 834 833 831 830 830 829 827 826 825
813 820 854 840 864 857 836 848 842 829 831 834 836 837 841 846 846 845 845 846 848 849 852 852 851 851 852 852 852 851 850 848 847 845 843 840 838 835 834 832 831 830 829 829 829 827 825 824 821
811 832 822 853 866 868 856 840 832 831 835 836 836 840 844 847 846 845 847 848 851 852 852 852 851 852 852 852 851 850 848 846 844 841 839 836 834 834 837 838 838 834 828 828 825 824 822 821 819
808 814 839 855 860 855 854 848 851 839 837 835 842 844 848 848 848 848 850 853 853 851 851 851 851 851 852 851 850 849 847 845 842 839 836 833 831 832 832 832 832 832 828 825 823 820 818 818 816
821 825 836 844 863 869 877 855 833 831 833 839 843 844 846 848 849 850 851 850 852 852 851 851 851 851 851 850 848 846 844 842 840 836 833 832 832 831 829 827 828 826 823 820 819 816 815 813 811
811 820 833 863 851 878 879 857 824 829 833 834 839 839 843 846 847 848 848 850 852 853 852 851 851 850 850 848 846 845 843 840 836 832 831 830 828 825 823 821 821 819 819 816 815 812 812 810 807